World > North America > United States > California

La Jolla, California Regional Weather

Lat: 32.85N, Lon: 117.27W
Wx Zone: CAZ043 Web Search

Helpful Tip: Abbreviated, 7 Day, 14 Day Forecasts. There is a weather forecast for every taste.

Feedback

La Jolla, CA Regional Weather

Expires:202008061300;;020676
ASUS46 KSGX 061211
RWRSGX

SAN DIEGO HOURLY WEATHER ROUNDUP
NATIONAL WEATHER SERVICE SAN DIEGO CA
500 AM PDT THU AUG 06 2020

NOTE: "FAIR" INDICATES FEW OR NO CLOUDS BELOW 12,000 FEET WITH NO 
SIGNIFICANT WEATHER AND/OR OBSTRUCTIONS TO VISIBILITY.


CAZ042-043-060-061-PZZ750-775-061300-

GREATER SAN DIEGO AREA
  
CITY           SKY/WX    TMP DP  RH WIND       PRES   REMARKS
SAN DIEGO AP   CLOUDY    67  57  70 CALM      29.92S                  
CHULA VISTA      N/A     67  60  80 CALM      29.82S                  
BROWN FIELD    CLOUDY    64  57  78 CALM      29.91S                  
MIRAMAR MCAS   CLOUDY    66  59  78 SE5       29.91F                  
MONTGOMERY FLD CLOUDY    66  57  72 E5        29.91F                  
GILLESPIE FLD  CLOUDY    66  57  72 SE5       29.90S                  
LEMON GROVE      N/A     64  59  84 CALM      29.88S                  

$$

NORTH SAN DIEGO COUNTY
  
CITY           SKY/WX    TMP DP  RH WIND       PRES   REMARKS
CAMP PENDLETON CLOUDY    68  57  68 CALM      29.90S                  
OCEANSIDE AP   CLOUDY    67  61  81 S7        29.89F                  
OCEANSIDE HBR    N/A     66  61  84 SE2       29.97S                  
VISTA            N/A     65  59  82 CALM      29.87F                  
CARLSBAD       CLOUDY    66  57  72 S7        29.90S                  
ENCINITAS        N/A     64  60  85 CALM        N/A                   
LA JOLLA SCRIP   N/A     65  59  82 CALM      29.90S                  
FALLBROOK      CLOUDY    63  59  88 S3        29.91S                  
ESCONDIDO        N/A     65  60  83 CALM      29.89S                  
SAN MARCOS       N/A     64  59  83 CALM      29.93S                  
RANCHO BERNARD   N/A     64  58  80 CALM      29.89F                  
POWAY            N/A     65  58  80 CALM      29.91S                  

$$

EAST SAN DIEGO COUNTY
  
CITY           SKY/WX    TMP DP  RH WIND       PRES   REMARKS
RAMONA         CLOUDY    61  57  87 CALM      29.92S                  
LA MESA          N/A     63  57  82 CALM      29.85F                  
JAMUL            N/A     60  57  90 CALM      29.89S                  
DESCANSO N       N/A     49  38  65 E5        29.86S                  
CAMPO            N/A     47  42  83 NE6       29.92S                  

$$

ORANGE COUNTY AND THE LOS ANGELES BASIN
  
CITY           SKY/WX    TMP DP  RH WIND       PRES   REMARKS
JOHN WAYNE AP  CLOUDY    68  59  73 SE6       29.89S                  
LAGUNA BEACH     N/A     67  62  83 CALM      29.88S                  
LAKE FOREST FR   N/A     63  57  79 SE2       29.76F                  
HUNTINGTON BCH   N/A     65  61  87 CALM      29.89S                  
FULLERTON      CLOUDY    67  58  72 CALM      29.88F                  
LONG BEACH     CLOUDY    65  59  81 CALM      29.89S                  
L.A. AP        CLOUDY    65  57  75 N5        29.89F                  
L.A. DOWNTOWN  CLOUDY    67  58  72 E5        29.88F                  

$$

THE INLAND EMPIRE
  
CITY           SKY/WX    TMP DP  RH WIND       PRES   REMARKS
CORONA         CLOUDY    66  61  84 CALM      29.90F                  
UPLAND AP      CLOUDY    63  59  88 N3        29.91S                  
CHINO          CLOUDY    68  58  70 SW5       29.91S                  
ONTARIO        CLOUDY    66  59  78 CALM      29.90S                  
SAN BERNARDINO CLOUDY    65  58  77 CALM      29.91F                  
RIVERSIDE AP   CLOUDY    65  58  78 CALM      29.90S                  
MORENO VALLEY    N/A     61  60  96 CALM      29.85S                  
MARCH ARB      CLOUDY    62  58  88 S5        29.91F                  
HORSETHIEF CYN   N/A     61  56  83 CALM      29.87S                  
LAKE ELSINORE    N/A     63  57  83 SE3       29.81F                  
HEMET AP       CLOUDY    61  59  93 W6        29.92S                  
FRENCH VALLEY  CLOUDY    63  57  82 S7        29.92F                  
TEMECULA         N/A     63  60  90 SE1       29.88F                  

$$

SAN BERNARDINO AND RIVERSIDE COUNTY MOUNTAINS
  
CITY           SKY/WX    TMP DP  RH WIND       PRES   REMARKS
BIG BEAR AP    CLEAR     45  27  49 CALM      30.12F                  
BIG BEAR LAKE    N/A     47  28  47 SW3       29.77F                  
LK ARROWHEAD N   N/A     61  37  41 CALM      29.69F                  
WRIGHTWOOD       N/A     67   6   9 SW5       29.66F                  
ANGELUS OAKS     N/A     54  30  40 CALM      29.70S                  
IDYLLWILD        N/A     49  26  40 CALM      29.73S                  
GARNER VALLEY    N/A     45  37  72 CALM      29.76S                  
TORO PEAK        N/A     55  -2   9 W7          N/A                   

$$

SOUTHERN DESERT INCLUDING THE COACHELLA VALLEY
  
CITY           SKY/WX    TMP DP  RH WIND       PRES   REMARKS
PALM SPRINGS   CLEAR     78  52  40 CALM      29.75R                  
THOUSAND PALMS   N/A     80  49  33 W13       29.67R                  
PALM DESERT      N/A     73  56  55 CALM        N/A                   
INDIO            N/A     82  51  34 W7        29.70S                  
THERMAL        CLEAR     75  50  41 E3        29.69R                  
BORREGO AP     FAIR      79  37  22 W5        29.76S                  
OCOTILLO WELLS   N/A     83  40  21 W3        29.67S                  
CANEBRAKE        N/A     80  33  18 NW3       29.66R                  
IMPERIAL AP    CLEAR     82  40  22 S12       29.73R                  
YUMA AZ        CLEAR     80  43  26 W3        29.74S                  

$$

UPPER DESERT
  
CITY           SKY/WX    TMP DP  RH WIND       PRES   REMARKS
HESPERIA         N/A     60  53  77 W3        29.76S                  
APPLE VALLEY     N/A     63  51  65 W1        29.78S                  
PALMDALE       CLEAR     65  47  52 SW13      29.89R                  
LANCASTER      CLEAR     64  52  64 SW14      29.87F                  
EDWARDS AFB    CLEAR     65  50  58 SW18      29.83F                  
GRAY BUTTE AP  FAIR      59  41  51 VRB3      29.87S                  
DAGGETT        CLEAR     73  45  36 NW13      29.82S                  
29 PALMS N     CLEAR     70  37  29 NW5       29.89R                  
29 PALMS JTNP    N/A     74  34  22 S3        29.64S                  
NEEDLES        CLEAR     83  38  20 W7        29.73R                  

$$

REGIONAL REPORTS
  
CITY           SKY/WX    TMP DP  RH WIND       PRES   REMARKS
SANTA BARBARA  CLEAR     58  55  90 E6        29.88S                  
LAS VEGAS NV   CLEAR     81  40  23 S13       29.77S                  
PHOENIX AZ     CLEAR     85  40  20 E9        29.77S                  
TIJUANA          N/A    N/A N/A N/A MISG        N/A                   
ENSENADA NW      N/A     63  32  30 W1        29.87S                  

$$

OFFSHORE ISLANDS
  
CITY           SKY/WX    TMP DP  RH WIND       PRES   REMARKS
CATALINA ARPT  CLOUDY    58  55  90 E9        29.91S                  
SAN CLEMENTE I   N/A     60  50  69 NW12      29.92F                  
SAN NICOLAS IS CLEAR     57  52  83 NW29G37   29.91R                  

$$

MARINE AND OFFSHORE BUOY REPORTS
  
STATION/POSITION SKY/WX   TEMP    WIND        PRES    VSBY  SWELL
                          AIR SEA DIR/SP/G                  HT/PER/DIR
                          (F)     (DEG/KT/KT) (MB)    (MI)  (FT/S/D)
TANNER BANKS               62     320/ 19/ 25 1013.9S         2/250/12
S CLEMENTE BASIN           63                 1012.9S         3/290/ 7
SAN NICOLAS IS.               60                N/A           2/230/13
SO. S. ROSA ISLA           60 59              1013.4F         2/260/13
W. S. BARBARA CH              56  310/ 16/ 21 1013.2S         2/140/14
M. S. BARBARA CH           60 62  280/ 14/ 16 1012.6R         2/280/ 8
S. MONICA BASIN            64 67  350/  6/ 10 1012.7R
S PEDRO CHANN
3a4
EL               66                N/A
OCEANSIDE OFFSHR              70                N/A
TORREY PINES OTR              69                N/A           2/200/12
SAN DIEGO BAY                 69              1012.4F
POINT LOMA SOUTH              70                N/A           2/200/13

$$

  

SKY/WX - Weather  TMP - Temperature  DP - Dew Point  RH - Relative Humidity
WIND - Wind Direction/Speed PRES - Barometric Pressure VSB - Visibility
WCI - Wind Chill Index E13G22 Wind - East Wind 13 mph/Gusts of 22 mph
La Jolla Weather Map
UTC Time: 8/6/2020, 13:01
Your Time: